Weather History for PAMR - July, 2013

Change the Weather History Date:

Saturday, July 6, 2013

  Actual Average Record
Temperature  
Mean Temperature 58 °F -  
Max Temperature 64 °F 66 °F 81 °F (2015)
Min Temperature 53 °F 52 °F 46 °F (1993)
Degree Days  
Heating Degree Days 7    
Growing Degree Days 8 (Base 50)    
Moisture  
Dew Point 49 °F    
Average Humidity 76    
Maximum Humidity 93    
Minimum Humidity 53    
Precipitation  
Precipitation 0.00 in - - ()
Sea Level Pressure  
Sea Level Pressure 29.94 in    
Wind  
Wind Speed 3 mph (NW)    
Max Wind Speed 7 mph    
Max Gust Speed -    
Visibility 10 miles    
Events Rain    
Averages and records for this station are not official NWS values.
T = Trace of Precipitation, MM = Missing Value Source: NWS Daily Summary

Daily Weather History Graph

Daily Weather History Graph

Search for Another Location

Airport or City:

Trip Planner

Search our weather history database for the weather conditions in past years. The results will help you decide how hot, cold, wet, or windy it might be!

Date:

Astronomy

Jul. 06, 2013 Rise Set
Actual Time 4:34 AM AKDT 11:32 PM AKDT
Civil Twilight 2:28 AM AKDT 1:32 AM AKDT
Nautical Twilight Sun does not set Sun does not set
Astronomical Twilight Sun does not set Sun does not set
Moon 3:53 AM AKDT (7/6) 9:54 PM AKDT (7/6)
Length of Visible Light 23h 04m
Length of Day
18h 57m
Waning Crescent, 2% of the Moon is Illuminated
Jul 6
Waning Crescent
Jul 7
New
Jul 15
First Quarter
Jul 22
Full
Jul 29
Last Quarter

Hourly Weather History & Observations

Time (AKDT) Temp. Dew Point Humidity Pressure Visibility Wind Dir Wind Speed Gust Speed Precip Events Conditions
12:53 AM 54.0 °F 51.1 °F 90% 30.04 in 10.0 mi SW 3.5 mph - 0.00 in   Overcast
1:53 AM 54.0 °F 50.0 °F 86% 30.04 in 10.0 mi North 3.5 mph - N/A   Overcast
2:53 AM 55.0 °F 50.0 °F 83% 30.03 in 10.0 mi Calm Calm - 0.00 in   Overcast
3:53 AM 54.0 °F 50.0 °F 86% 30.01 in 10.0 mi NNW 4.6 mph - N/A   Overcast
4:53 AM 53.1 °F 51.1 °F 93% 30.01 in 10.0 mi North 3.5 mph - N/A   Overcast
5:53 AM 53.1 °F 51.1 °F 93% 30.00 in 10.0 mi Calm Calm - N/A   Overcast
6:53 AM 53.1 °F 51.1 °F 93% 30.00 in 10.0 mi Calm Calm - N/A   Overcast
7:53 AM 54.0 °F 52.0 °F 93% 30.00 in 10.0 mi Calm Calm - 0.00 in Rain Light Rain
8:53 AM 54.0 °F 50.0 °F 86% 29.99 in 10.0 mi NNW 5.8 mph - 0.00 in   Overcast
9:53 AM 55.0 °F 50.0 °F 83% 29.99 in 10.0 mi West 4.6 mph - N/A   Overcast
10:53 AM 55.9 °F 50.0 °F 80% 29.98 in 10.0 mi WNW 5.8 mph - N/A   Overcast
11:53 AM 59.0 °F 50.0 °F 72% 29.98 in 10.0 mi NNW 5.8 mph - N/A   Overcast
12:53 PM 60.1 °F 46.9 °F 62% 29.97 in 10.0 mi Calm Calm - N/A   Overcast
1:53 PM 61.0 °F 48.0 °F 62% 29.96 in 10.0 mi WNW 3.5 mph - 0.00 in   Overcast
2:53 PM 62.1 °F 45.0 °F 53% 29.94 in 10.0 mi NNW 3.5 mph - N/A   Overcast
3:53 PM 63.0 °F 48.0 °F 58% 29.93 in 10.0 mi West 6.9 mph - N/A   Overcast
4:53 PM 61.0 °F 46.9 °F 60% 29.91 in 10.0 mi NNW 5.8 mph - N/A   Overcast
5:53 PM 62.1 °F 48.0 °F 60% 29.88 in 10.0 mi NNW 5.8 mph - N/A   Overcast
6:53 PM 62.1 °F 48.0 °F 60% 29.86 in 10.0 mi WNW 4.6 mph - N/A   Overcast
7:53 PM 60.1 °F 46.9 °F 62% 29.85 in 10.0 mi NW 5.8 mph - N/A   Overcast
8:53 PM 60.1 °F 48.0 °F 64% 29.83 in 10.0 mi Calm Calm - N/A   Overcast
9:53 PM 57.9 °F 50.0 °F 75% 29.81 in 10.0 mi West 4.6 mph - N/A   Overcast
10:53 PM 57.0 °F 52.0 °F 83% 29.80 in 10.0 mi NW 4.6 mph - N/A   Mostly Cloudy
11:53 PM 57.0 °F 52.0 °F 83% 29.78 in 10.0 mi Calm Calm - N/A   Overcast